RH
31 31 31 31 37 41 46 54 63 73 66 57 55 50 45 41 38 36 37 36 39 47 47 43 41 57 62 60 66 74 86 91 96 90 85 88 99 96
32 33 32 32 34 35 37 39 47 62 67 54 53 49 47 44 43 39 38 38 39 42 46 50 51 48 53 65 72 70 84 90 92 95 89 85 96 98
36 37 38 38 38 38 39 40 44 50 60 51 51 50 50 47 44 41 38 40 40 42 47 49 53 53 49 54 62 72 83 86 95 99 95 90 90 94
41 43 44 45 44 44 46 48 48 47 52 56 52 55 53 46 42 41 43 43 44 44 46 49 54 54 56 61 69 75 83 76 69 75 85 96 92 93
47 50 53 54 55 55 56 58 58 58 58 59 58 57 56 50 45 44 45 47 47 47 49 50 52 52 57 62 68 71 70 79 77 73 74 81 80 89
55 59 60 61 60 59 59 61 62 64 66 66 64 62 60 59 52 51 52 50 49 52 52 52 55 53 53 64 59 54 57 72 65 60 78 88 88 80
60 61 62 61 61 61 61 61 63 69 77 71 80 81 76 63 60 57 59 54 53 52 57 56 56 55 54 54 60 65 71 82 94 99 94 92 93 83
61 62 64 64 62 60 59 59 60 60 62 74 98 82 88 80 65 63 63 64 70 56 59 60 58 58 55 60 63 64 65 61 73 73 77 83 99 90
64 64 65 64 63 62 61 60 60 61 60 62 68 72 80 96 98 86 70 68 66 63 68 73 65 62 57 59 59 61 57 57 59 66 71 74 72 92
64 66 66 66 66 64 64 65 67 66 67 69 73 80 92 96 98 80 69 72 76 76 75 81 71 70 54 57 65 64 56 62 62 69 70 66 65 72
78 77 75 73 69 65 67 78 82 77 78 78 73 76 79 91 93 94 96 84 84 82 77 78 76 73 66 63 69 66 70 66 91 96 83 85 85 76
78 82 84 82 72 74 99 99 87 83 81 80 80 82 83 78 77 71 77 78 77 80 78 80 78 75 77 66 65 64 54 46 66 70 84 92 90 99
87 83 78 73 68 76 79 82 87 92 97 100 97 85 87 87 83 73 70 74 79 87 71 71 67 68 72 70 63 62 59 54 67 43 53 71 88 99
84 83 83 88 88 83 79 78 72 70 93 94 95 89 89 92 84 77 70 65 66 65 64 62 76 81 74 84 86 73 64 57 56 57 61 68 81 99
93 88 89 85 81 77 81 84 81 84 87 95 92 91 89 87 81 78 76 69 68 64 62 56 70 76 87 86 85 81 78 69 70 74 82 84 71 66
97 98 81 76 77 76 76 77 84 95 99 99 96 91 92 89 82 78 80 72 74 72 60 61 79 79 96 97 97 98 88 91 73 72 67 76 83 81
91 87 87 88 89 87 85 83 83 84 96 100 98 99 99 94 91 81 79 77 89 83 82 87 78 96 91 88 100 94 93 91 85 81 80 78 82 83
81 86 89 86 86 87 88 90 91 90 89 93 99 100 100 99 98 87 86 89 95 76 74 78 82 92 100 98 94 99 100 96 82 84 92 79 89 92
92 93 91 91 92 92 94 95 96 96 96 96 92 96 99 99 99 98 88 92 98 90 75 70 83 99 97 94 74 75 85 80 74 84 80 80 91 99
94 95 94 96 96 98 98 98 98 100 100 100 99 98 98 100 99 99 98 96 95 98 96 89 100 99 95 88 88 68 74 80 83 94 97 88 80 83
96 96 98 98 99 99 99 99 100 99 98 99 98 98 97 99 99 99 100 92 95 98 96 97 94 83 83 91 94 90 85 76 73 72 83 94 79 76
98 99 99 100 100 100 99 99 99 99 99 99 99 99 97 98 98 100 100 99 99 95 96 92 98 97 99 99 89 90 87 81 77 76 75 84 82 93
100 100 100 100 100 100 98 99 99 100 100 98 98 98 98 98 97 99 100 98 99 100 96 99 99 100 100 98 96 97 91 89 86 85 81 84 89 85
Wind_Speed
22 24 25 26 25 25 27 27 21 13 13 22 25 26 25 23 25 27 29 32 32 27 28 34 34 30 30 30 28 26 25 24 23 21 20 21 14 13
27 25 26 29 30 29 28 29 27 23 15 27 27 30 30 26 26 25 28 30 32 31 29 28 30 36 33 30 27 28 25 24 24 23 20 19 19 16
28 29 29 30 30 30 29 29 28 26 19 36 32 32 29 27 26 27 28 28 32 33 30 28 29 32 36 34 33 29 27 26 25 24 22 19 18 18
29 30 31 29 30 30 30 29 28 28 26 25 37 33 27 27 24 26 26 30 29 32 33 32 30 33 34 34 33 32 30 29 28 27 25 21 18 17
27 27 29 29 30 29 30 28 29 29 28 26 32 34 30 29 30 29 29 28 28 30 30 29 27 26 28 29 27 25 26 25 27 27 27 25 23 20
30 30 30 29 30 30 30 29 28 27 26 27 29 32 27 28 26 23 23 26 30 29 28 29 27 27 28 25 27 28 26 28 29 29 27 26 24 22
30 30 29 29 30 31 32 31 30 27 25 25 26 26 25 25 22 23 23 25 30 30 28 30 28 24 26 27 27 23 18 18 15 16 23 26 24 22
29 29 30 31 30 30 30 31 31 31 29 26 23 23 26 29 26 21 18 22 9 26 24 27 25 27 27 25 24 20 19 18 19 21 21 19 22 21
30 31 31 28 30 32 33 31 31 30 31 33 30 30 29 28 29 21 23 23 24 27 21 24 28 26 27 24 24 21 19 21 22 20 20 22 21 21
29 30 31 32 30 31 33 32 29 30 29 30 29 31 30 30 27 26 25 25 25 25 20 18 27 25 29 25 22 21 22 22 23 20 23 23 23 22
28 29 32 34 32 31 34 32 31 29 30 28 30 31 30 30 30 30 25 20 17 22 21 23 25 24 24 24 20 18 7 13 9 13 13 14 18 21
29 27 27 29 34 35 34 29 28 27 28 30 29 28 27 28 26 26 26 22 20 16 21 22 22 19 6 11 11 9 11 14 12 13 12 11 12 15
27 29 29 31 33 33 34 34 32 35 33 31 26 26 25 25 26 25 26 27 19 17 25 23 22 18 9 5 11 16 15 12 13 22 18 13 13 13
30 30 33 34 37 37 33 33 34 36 27 26 22 23 23 24 26 27 27 29 29 26 25 23 15 14 15 9 6 13 14 17 17 17 18 15 13 14
29 31 34 34 33 31 29 29 30 26 25 23 21 22 24 28 28 27 27 24 26 24 22 21 21 22 16 20 8 12 11 12 18 10 7 11 16 15
27 26 27 27 26 25 26 25 25 25 24 22 20 24 25 25 26 26 26 25 23 23 19 18 18 20 18 22 23 20 19 10 11 18 19 18 18 16
28 24 25 24 23 23 23 24 24 24 23 25 22 22 22 23 24 25 23 23 20 16 17 17 15 17 22 23 19 20 20 20 19 20 17 18 23 22
22 21 21 22 22 23 24 24 24 24 23 23 22 20 20 17 19 22 21 22 17 16 15 15 15 13 14 17 21 20 19 22 20 15 15 18 20 21
20 20 21 22 23 24 24 25 25 25 26 23 22 21 20 20 17 14 15 15 15 16 19 21 18 14 4 7 16 16 22 19 16 16 14 14 17 18
21 21 22 24 25 26 26 25 26 26 25 23 23 22 21 19 17 16 15 15 14 15 20 22 20 20 11 12 7 17 13 16 15 15 17 19 17 20
21 23 23 25 25 26 28 28 28 27 26 25 24 23 23 20 18 19 18 17 17 16 14 16 27 27 27 21 10 16 21 20 20 22 20 21 20 16
24 25 25 26 27 28 28 28 28 29 26 24 24 23 22 21 19 17 18 16 17 16 17 18 17 18 20 17 13 15 21 23 20 21 22 25 13 3
25 26 26 28 28 31 26 28 28 29 27 25 24 24 24 21 18 19 19 18 18 17 18 18 15 16 18 19 16 16 22 24 23 21 22 21 23 29
Wind_Direction
301 299 297 296 297 297 297 295 292 298 291 292 290 290 290 292 294 297 296 298 302 302 302 301 302 302 301 300 295 295 293 288 284 288 289 282 273 265
302 298 296 295 295 294 292 291 289 288 292 290 288 289 287 284 289 290 291 293 294 296 293 294 294 299 300 299 296 294 289 286 280 278 281 283 278 263
301 299 295 295 292 293 293 290 288 283 281 291 289 288 284 282 281 283 288 288 289 291 291 292 295 293 294 294 294 290 286 286 279 274 273 274 269 268
301 300 297 296 293 292 291 291 286 284 283 285 292 292 282 280 279 283 280 283 284 285 288 290 294 294 290 294 293 288 288 288 281 274 269 268 268 259
302 304 303 302 299 295 292 288 285 284 284 285 289 293 289 285 282 276 280 282 283 285 285 288 291 295 297 300 299 297 297 289 287 281 270 266 262 256
300 299 297 296 293 293 291 288 290 286 284 283 281 286 289 288 278 272 276 281 286 287 285 284 289 293 297 300 298 292 295 295 285 282 276 266 258 254
300 298 296 295 293 292 292 291 288 283 283 282 281 282 281 283 272 273 272 282 281 283 283 286 289 289 292 298 300 296 303 303 303 291 277 267 255 250
301 301 298 297 295 294 292 290 290 292 288 288 281 281 279 274 270 268 273 278 276 278 279 282 287 288 292 293 298 298 296 306 308 300 297 280 261 250
301 301 301 299 298 295 292 290 287 285 283 286 286 283 282 280 270 267 267 264 268 275 278 276 281 282 286 290 296 294 298 302 294 293 291 283 278 263
301 299 298 299 298 296 294 290 286 285 283 280 278 280 279 275 275 273 270 272 276 279 274 269 276 274 286 288 285 291 302 296 288 289 287 278 269 264
305 304 299 296 295 296 295 292 289 287 283 281 285 283 282 278 274 273 270 268 273 275 270 259 270 271 278 282 275 288 300 328 317 315 301 291 273 266
314 312 311 307 307 303 306 299 293 290 286 285 285 282 279 278 278 275 267 262 259 273 271 252 260 258 277 272 249 239 286 317 311 312 315 316 303 285
313 311 308 308 308 306 302 298 296 296 288 292 281 278 275 272 273 272 276 268 257 251 271 267 266 255 232 231 257 286 301 306 308 313 318 299 304 296
310 308 306 305 305 307 303 299 297 295 292 293 279 273 273 268 269 272 271 276 277 271 280 279 265 257 242 237 240 267 278 295 306 307 307 295 305 303
314 314 317 317 316 313 308 307 309 300 289 279 276 273 273 273 278 277 274 270 273 272 273 276 259 244 251 252 238 253 285 297 301 301 302 295 312 313
319 320 323 323 321 320 319 321 319 311 294 275 274 279 280 280 275 278 272 271 272 274 272 270 268 246 236 252 259 254 268 265 272 292 299 300 296 297
328 330 324 323 321 322 323 321 322 321 320 299 272 280 279 280 278 281 272 268 257 258 287 288 282 260 254 253 251 264 270 272 281 289 285 285 289 294
340 328 325 327 325 326 326 325 323 322 318 319 310 293 281 273 277 288 277 262 253 258 264 271 277 264 246 253 253 258 262 265 282 286 270 282 289 296
332 325 325 325 326 326 325 323 319 316 313 308 307 303 295 289 280 278 276 262 247 247 251 258 245 234 228 255 264 257 253 261 272 276 271 270 273 284
336 332 330 331 329 327 323 320 320 316 309 305 302 300 291 285 269 262 261 256 253 245 247 253 237 222 224 244 243 264 250 256 266 272 270 266 263 283
335 334 333 333 332 332 329 325 317 313 316 307 303 301 294 288 275 257 258 262 256 244 244 244 243 252 252 256 263 264 263 263 266 262 261 258 271 284
338 334 333 333 329 328 330 330 325 323 314 315 303 297 301 289 285 268 255 245 254 258 264 278 270 235 231 230 240 256 268 279 276 270 267 260 239 235
337 335 334 334 333 332 324 333 329 326 316 318 314 306 293 287 283 281 254 256 254 259 270 274 265 250 242 240 243 250 263 269 273 271 266 252 254 257